Vorticity
10 8 4 -2 -0 2 2 2 3 4 4 4 5 5 5 6 9 9 10 10 9 7 7 7 7 6 5 4 3 4 4 6 6
16 12 9 6 0 1 4 5 2 2 3 4 5 5 5 4 6 9 11 10 10 9 8 8 7 6 4 4 3 3 4 6 6
15 18 15 11 9 3 -5 3 2 1 1 2 4 4 5 5 4 6 9 10 10 9 9 9 8 7 5 4 4 3 4 5 5
10 13 18 16 12 11 8 2 2 2 1 2 2 4 3 6 5 5 6 8 10 9 9 10 9 7 5 6 5 5 5 4 5
5 7 12 15 19 12 13 9 4 3 2 2 2 1 3 2 7 6 6 6 8 8 9 8 9 7 5 5 5 5 6 6 6
4 5 5 10 14 18 15 15 10 5 4 3 2 2 1 -0 3 4 6 5 6 8 8 9 8 7 5 4 4 4 4 4 4
4 3 4 4 7 12 15 19 16 12 6 3 4 4 2 4 1 2 2 6 5 6 7 9 10 8 5 5 5 5 4 4 4
4 4 4 4 5 6 10 13 17 16 13 9 7 7 2 0 6 0 2 4 4 6 6 7 9 10 9 5 3 3 4 4 4
6 6 5 5 5 4 6 9 14 17 14 8 16 3 22 8 10 -0 3 2 2 2 6 6 6 7 8 8 8 7 5 5 4
4 4 4 5 5 5 5 5 8 13 16 30 -1 -6 18 -10 16 2 2 12 1 3 2 4 6 6 6 7 7 7 6 6 5
7 6 5 5 5 5 5 5 6 7 11 16 13 16 -2 5 -11 16 12 11 4 -3 9 1 2 5 8 6 5 5 6 7 7
6 6 6 6 6 6 6 5 6 5 6 11 14 16 17 -5 15 -7 1 1 -2 18 11 -1 8 10 5 3 6 6 6 6 5
7 7 6 6 6 6 6 7 6 5 6 8 12 14 13 20 14 2 13 20 -7 -1 12 15 9 12 18 19 8 2 4 5 7
8 8 7 6 6 7 7 7 6 6 7 7 10 13 16 8 5 15 -7 19 13 10 5 -9 -3 12 5 13 -2 -1 11 15 8
8 8 7 7 7 8 7 7 6 6 7 8 8 11 14 16 17 3 -7 14 -15 23 15 13 22 3 2 17 33 12 9 5 16
9 9 8 8 7 7 8 7 6 6 5 5 7 9 11 14 13 12 14 13 39 -13 -11 21 11 4 27 -3 -3 2 0 9 20
8 9 9 9 9 8 8 8 7 5 6 5 6 8 9 11 16 24 -2 -11 10 23 1 42 3 31 -7 10 12 -3 -2 -1 9
9 9 9 8 8 9 9 8 7 6 6 6 5 9 5 8 11 17 26 18 3 9 20 -4 -4 7 35 19 8 8 7 5 13
8 8 9 10 9 8 9 9 7 7 7 7 7 8 8 5 10 6 16 21 22 10 15 22 21 8 3 11 15 14 19 37 5
8 8 8 9 9 9 9 9 7 6 7 7 8 7 7 7 8 8 10 8 5 4 7 1 8 15 20 21 24 5 14 11 13
Height
3183 3184 3184 3184 3185 3185 3185 3185 3184 3184 3184 3183 3183 3181 3181 3180 3178 3177 3175 3175 3175 3175 3175 3174 3174 3175 3174 3173 3172 3173 3172 3171 3170
3182 3182 3182 3182 3183 3184 3184 3184 3184 3184 3183 3183 3182 3181 3180 3180 3179 3178 3177 3175 3175 3175 3176 3175 3175 3175 3175 3175 3174 3172 3172 3172 3171
3182 3181 3181 3181 3181 3182 3183 3183 3182 3182 3183 3183 3183 3183 3181 3181 3180 3179 3178 3176 3176 3176 3176 3177 3177 3177 3177 3177 3176 3176 3174 3174 3173
3182 3181 3180 3179 3179 3180 3180 3181 3181 3181 3181 3181 3184 3182 3182 3181 3180 3180 3179 3178 3177 3177 3177 3177 3178 3178 3179 3178 3178 3177 3176 3175 3174
3184 3182 3181 3179 3178 3178 3179 3179 3179 3179 3178 3179 3181 3181 3182 3181 3181 3180 3180 3178 3178 3178 3178 3178 3177 3177 3178 3178 3178 3178 3177 3176 3175
3185 3183 3181 3180 3178 3177 3177 3177 3177 3177 3176 3176 3179 3180 3181 3181 3181 3180 3180 3179 3179 3178 3177 3178 3178 3178 3178 3178 3178 3178 3177 3177 3176
3186 3184 3183 3180 3179 3177 3176 3175 3175 3175 3175 3174 3176 3178 3179 3180 3180 3181 3180 3180 3179 3179 3178 3177 3177 3178 3178 3179 3178 3178 3177 3177 3177
3186 3184 3183 3181 3180 3178 3176 3175 3174 3174 3173 3173 3174 3176 3177 3178 3178 3179 3179 3179 3179 3179 3178 3178 3177 3177 3177 3178 3177 3177 3177 3176 3175
3186 3185 3183 3182 3181 3179 3176 3175 3174 3173 3171 3171 3172 3174 3175 3176 3176 3177 3178 3178 3178 3178 3178 3178 3177 3176 3176 3176 3176 3175 3175 3174 3173
3185 3184 3183 3182 3181 3179 3177 3175 3174 3172 3171 3170 3173 3172 3173 3174 3175 3176 3176 3177 3177 3177 3177 3177 3176 3176 3175 3175 3175 3174 3173 3173 3172
3184 3183 3182 3181 3180 3179 3177 3176 3174 3172 3170 3170 3170 3170 3171 3173 3172 3173 3173 3175 3175 3175 3175 3175 3175 3174 3174 3174 3173 3172 3171 3171 3170
3183 3182 3181 3181 3179 3178 3177 3176 3174 3172 3171 3169 3169 3168 3168 3171 3170 3170 3172 3173 3173 3172 3173 3172 3172 3171 3172 3172 3171 3171 3170 3169 3168
3182 3181 3180 3179 3178 3177 3176 3175 3174 3173 3171 3169 3167 3166 3165 3167 3168 3169 3170 3170 3171 3171 3171 3171 3169 3169 3168 3169 3169 3168 3167 3166 3165
3181 3180 3179 3178 3177 3176 3175 3174 3174 3172 3171 3170 3167 3166 3164 3165 3166 3167 3167 3168 3167 3169 3170 3168 3168 3168 3166 3166 3166 3165 3164 3163 3163
3178 3177 3177 3176 3176 3175 3174 3173 3172 3171 3170 3169 3167 3165 3164 3163 3163 3166 3164 3165 3165 3166 3165 3166 3166 3166 3164 3163 3164 3163 3161 3160 3158
3176 3175 3175 3174 3173 3172 3172 3171 3171 3170 3169 3168 3167 3165 3163 3163 3162 3163 3164 3165 3163 3163 3162 3164 3164 3163 3163 3162 3161 3159 3159 3158 3156
3174 3173 3173 3172 3171 3170 3170 3170 3170 3169 3168 3168 3166 3165 3164 3161 3160 3161 3162 3162 3161 3162 3161 3162 3161 3160 3160 3159 3157 3157 3156 3153 3153
3171 3171 3171 3170 3169 3169 3169 3168 3168 3168 3167 3166 3165 3164 3162 3161 3159 3158 3157 3158 3159 3160 3159 3159 3159 3158 3155 3156 3155 3154 3153 3151 3149
3168 3168 3168 3168 3167 3166 3166 3166 3166 3166 3166 3165 3164 3163 3162 3159 3159 3158 3156 3155 3155 3157 3158 3158 3157 3155 3153 3153 3152 3152 3150 3148 3147
3164 3164 3164 3164 3164 3164 3163 3163 3164 3164 3165 3164 3163 3162 3160 3160 3159 3157 3156 3154 3154 3155 3155 3155 3154 3153 3152 3151 3150 3149 3148 3147 3147